EZS51BG LFMN-LSGG

Flight info

Callsign EZS51BG
Flight time 1h 0m
Altitude 24000
Route IRMAR DCT KINES
Aircraft A20N/M-SDE2E3FGHIRWXY/LB1

Departure

Time 2026-05-07 18:14
Airport Nice-Côte d'Azur Airport (LFMN)

Arrival

Time 2026-05-07 19:15
Airport Geneva International Airport (LSGG)
Time Latitude Longitude Altitude Speed Heading
2026-05-07 18:01 43.66049 7.20709 25 ft 0 kts 291°
2026-05-07 18:05 43.66043 7.20730 29 ft 2 kts 291°
2026-05-07 18:06 43.66037 7.20752 26 ft 2 kts 291°
2026-05-07 18:06 43.66031 7.20773 24 ft 2 kts 291°
2026-05-07 18:06 43.66027 7.20795 25 ft 2 kts 256°
2026-05-07 18:06 43.66037 7.20809 24 ft 2 kts 193°
2026-05-07 18:07 43.66046 7.20811 29 ft 2 kts 178°
2026-05-07 18:07 43.66050 7.20811 28 ft 0 kts 173°
2026-05-07 18:08 43.66046 7.20811 29 ft 4 kts 173°
2026-05-07 18:08 43.66008 7.20819 24 ft 6 kts 167°
2026-05-07 18:09 43.65995 7.20823 25 ft 0 kts 170°
2026-05-07 18:09 43.65978 7.20825 9 ft 8 kts 175°
2026-05-07 18:09 43.65901 7.20807 24 ft 12 kts 198°
2026-05-07 18:09 43.65845 7.20748 23 ft 9 kts 224°
2026-05-07 18:10 43.65787 7.20671 23 ft 14 kts 224°
2026-05-07 18:10 43.65711 7.20566 21 ft 16 kts 224°
2026-05-07 18:10 43.65634 7.20459 21 ft 16 kts 225°
2026-05-07 18:10 43.65556 7.20352 20 ft 16 kts 224°
2026-05-07 18:11 43.65478 7.20244 21 ft 15 kts 225°
2026-05-07 18:11 43.65430 7.20188 21 ft 11 kts 208°
2026-05-07 18:11 43.65352 7.20198 21 ft 10 kts 147°
2026-05-07 18:11 43.65279 7.20294 20 ft 17 kts 135°
2026-05-07 18:12 43.65201 7.20401 23 ft 15 kts 135°
2026-05-07 18:12 43.65129 7.20490 24 ft 14 kts 149°
2026-05-07 18:12 43.65037 7.20503 25 ft 13 kts 199°
2026-05-07 18:12 43.64972 7.20433 26 ft 11 kts 224°
2026-05-07 18:13 43.64905 7.20342 28 ft 17 kts 225°
2026-05-07 18:13 43.64819 7.20225 24 ft 17 kts 224°
2026-05-07 18:13 43.64728 7.20200 27 ft 14 kts 148°
2026-05-07 18:13 43.64709 7.20299 27 ft 11 kts 60°
2026-05-07 18:14 43.64761 7.20374 26 ft 13 kts 45°
2026-05-07 18:14 43.64953 7.20640 28 ft 75 kts 45°
2026-05-07 18:14 43.65523 7.21422 31 ft 155 kts 45°
2026-05-07 18:14 43.66327 7.22540 702 ft 165 kts 48°
2026-05-07 18:15 43.66802 7.23911 1685 ft 160 kts 91°
2026-05-07 18:15 43.66353 7.25387 2290 ft 184 kts 129°
2026-05-07 18:15 43.65369 7.26708 2672 ft 210 kts 142°
2026-05-07 18:15 43.64001 7.27598 3226 ft 227 kts 171°
2026-05-07 18:16 43.62956 7.27540 3767 ft 229 kts 198°
2026-05-07 18:16 43.61444 7.25656 5007 ft 229 kts 250°
2026-05-07 18:16 43.61200 7.23489 5938 ft 230 kts 268°
2026-05-07 18:16 43.61186 7.21263 6779 ft 234 kts 270°
2026-05-07 18:17 43.61169 7.18993 7574 ft 238 kts 269°
2026-05-07 18:17 43.61139 7.17469 8117 ft 240 kts 268°
2026-05-07 18:17 43.61071 7.15152 8928 ft 243 kts 268°
2026-05-07 18:17 43.61374 7.12865 9683 ft 248 kts 300°
2026-05-07 18:18 43.62606 7.11152 10172 ft 264 kts 333°
2026-05-07 18:18 43.64431 7.10380 10459 ft 288 kts 348°
2026-05-07 18:18 43.66478 7.09804 10737 ft 312 kts 347°
2026-05-07 18:18 43.68670 7.09087 11044 ft 334 kts 345°
2026-05-07 18:19 43.70966 7.08216 11508 ft 349 kts 343°
2026-05-07 18:19 43.73321 7.07251 12220 ft 355 kts 342°
2026-05-07 18:19 43.75704 7.06236 12987 ft 361 kts 341°
2026-05-07 18:19 43.78116 7.05189 13750 ft 366 kts 341°
2026-05-07 18:20 43.80560 7.04116 14468 ft 370 kts 341°
2026-05-07 18:20 43.83034 7.03023 15173 ft 374 kts 341°
2026-05-07 18:20 43.85525 7.01919 15936 ft 378 kts 341°
2026-05-07 18:20 43.88042 7.00801 16644 ft 382 kts 340°
2026-05-07 18:21 43.90561 6.99681 17325 ft 386 kts 340°
2026-05-07 18:21 43.93129 6.98536 18019 ft 390 kts 340°
2026-05-07 18:21 43.95725 6.97378 18648 ft 394 kts 340°
2026-05-07 18:21 43.98374 6.96195 19235 ft 397 kts 340°
2026-05-07 18:22 44.00986 6.95027 19837 ft 400 kts 340°
2026-05-07 18:22 44.02791 6.94219 20240 ft 403 kts 340°
2026-05-07 18:22 44.06337 6.92631 21009 ft 407 kts 339°
2026-05-07 18:22 44.09039 6.91420 21598 ft 410 kts 339°
2026-05-07 18:23 44.11767 6.90197 22175 ft 414 kts 339°
2026-05-07 18:23 44.14519 6.88957 22711 ft 417 kts 341°
2026-05-07 18:23 44.17426 6.88371 23265 ft 425 kts 352°
2026-05-07 18:23 44.20375 6.87972 23722 ft 428 kts 351°
2026-05-07 18:24 44.23349 6.87581 23938 ft 430 kts 351°
2026-05-07 18:24 44.26322 6.87174 23976 ft 430 kts 351°
2026-05-07 18:24 44.29299 6.86749 23978 ft 430 kts 351°
2026-05-07 18:24 44.32267 6.86315 23981 ft 430 kts 351°
2026-05-07 18:25 44.35240 6.85873 23984 ft 430 kts 351°
2026-05-07 18:25 44.38219 6.85426 23987 ft 430 kts 351°
2026-05-07 18:25 44.40477 6.85086 23972 ft 430 kts 351°
2026-05-07 18:25 44.43450 6.84638 23976 ft 429 kts 351°
2026-05-07 18:26 44.46423 6.84187 23983 ft 429 kts 351°
2026-05-07 18:26 44.49393 6.83736 23980 ft 428 kts 351°
2026-05-07 18:26 44.52355 6.83285 23979 ft 428 kts 351°
2026-05-07 18:26 44.55316 6.82834 23981 ft 428 kts 351°
2026-05-07 18:27 44.58285 6.82381 23987 ft 428 kts 351°
2026-05-07 18:27 44.61240 6.81930 23969 ft 428 kts 351°
2026-05-07 18:27 44.64204 6.81477 23983 ft 427 kts 351°
2026-05-07 18:27 44.67163 6.81025 23974 ft 427 kts 351°
2026-05-07 18:28 44.70115 6.80573 23981 ft 427 kts 351°
2026-05-07 18:28 44.73071 6.80120 23973 ft 427 kts 351°
2026-05-07 18:28 44.75992 6.79672 23982 ft 427 kts 351°
2026-05-07 18:28 44.78935 6.79222 23976 ft 427 kts 351°
2026-05-07 18:29 44.81905 6.78912 23982 ft 428 kts 354°
2026-05-07 18:29 44.84884 6.78707 23979 ft 428 kts 354°
2026-05-07 18:29 44.87858 6.78519 23982 ft 428 kts 354°
2026-05-07 18:29 44.90831 6.78331 23977 ft 428 kts 354°
2026-05-07 18:30 44.93820 6.78139 23985 ft 428 kts 354°
2026-05-07 18:30 44.96792 6.77946 23988 ft 427 kts 354°
2026-05-07 18:30 44.99757 6.77752 23771 ft 426 kts 354°
2026-05-07 18:30 45.02716 6.77556 23492 ft 425 kts 354°
2026-05-07 18:31 45.05644 6.77363 23159 ft 416 kts 355°
2026-05-07 18:31 45.08509 6.77176 22870 ft 405 kts 355°
2026-05-07 18:31 45.10780 6.77027 22634 ft 397 kts 355°
2026-05-07 18:31 45.13545 6.76842 22346 ft 405 kts 355°
2026-05-07 18:32 45.16444 6.76643 22039 ft 426 kts 355°
2026-05-07 18:32 45.19425 6.76442 21745 ft 432 kts 355°
2026-05-07 18:32 45.22435 6.76242 21463 ft 434 kts 355°
2026-05-07 18:32 45.25460 6.76042 21153 ft 434 kts 355°
2026-05-07 18:33 45.28479 6.75841 20847 ft 434 kts 355°
2026-05-07 18:33 45.31487 6.75643 20547 ft 435 kts 355°
2026-05-07 18:33 45.34494 6.75219 20246 ft 433 kts 347°
2026-05-07 18:33 45.37469 6.74435 19954 ft 434 kts 347°
2026-05-07 18:34 45.40442 6.73608 19661 ft 434 kts 347°
2026-05-07 18:34 45.43370 6.72790 19382 ft 434 kts 347°
2026-05-07 18:34 45.46376 6.71958 19109 ft 435 kts 347°
2026-05-07 18:34 45.49313 6.71151 18882 ft 436 kts 347°
2026-05-07 18:35 45.52297 6.70334 18732 ft 436 kts 347°
2026-05-07 18:35 45.55282 6.69549 18565 ft 436 kts 347°
2026-05-07 18:35 45.58267 6.68776 18383 ft 435 kts 348°
2026-05-07 18:35 45.61243 6.68007 18186 ft 436 kts 348°
2026-05-07 18:36 45.64230 6.67232 17960 ft 436 kts 347°
2026-05-07 18:36 45.67231 6.66456 17755 ft 437 kts 347°
2026-05-07 18:36 45.69886 6.65768 17569 ft 437 kts 347°
2026-05-07 18:36 45.70895 6.65506 17506 ft 437 kts 347°
2026-05-07 18:37 45.72193 6.65169 17413 ft 437 kts 347°
2026-05-07 18:37 45.75185 6.64384 17205 ft 438 kts 347°
2026-05-07 18:37 45.78188 6.63577 16994 ft 438 kts 347°
2026-05-07 18:37 45.81184 6.62767 16790 ft 438 kts 347°
2026-05-07 18:38 45.84169 6.61959 16558 ft 437 kts 347°
2026-05-07 18:38 45.87158 6.61150 16281 ft 436 kts 347°
2026-05-07 18:38 45.90075 6.60359 16014 ft 432 kts 347°
2026-05-07 18:38 45.92974 6.59575 15727 ft 415 kts 347°
2026-05-07 18:39 45.95752 6.58823 15463 ft 398 kts 347°
2026-05-07 18:39 45.98429 6.58097 15202 ft 384 kts 347°
2026-05-07 18:39 46.01022 6.57393 14938 ft 375 kts 347°
2026-05-07 18:39 46.03577 6.56702 14681 ft 374 kts 348°
2026-05-07 18:40 46.06152 6.56166 14430 ft 373 kts 345°
2026-05-07 18:40 46.08479 6.54646 14192 ft 364 kts 321°
2026-05-07 18:40 46.10116 6.52027 14020 ft 344 kts 296°
2026-05-07 18:40 46.10892 6.48924 13856 ft 327 kts 283°
2026-05-07 18:41 46.11521 6.45804 13567 ft 320 kts 286°
2026-05-07 18:41 46.12321 6.42856 13245 ft 312 kts 292°
2026-05-07 18:41 46.13278 6.40068 12921 ft 300 kts 296°
2026-05-07 18:41 46.14283 6.37510 12621 ft 296 kts 298°
2026-05-07 18:42 46.15342 6.35018 12313 ft 285 kts 300°
2026-05-07 18:42 46.16392 6.32655 12012 ft 275 kts 300°
2026-05-07 18:42 46.17368 6.30326 11700 ft 269 kts 292°
2026-05-07 18:42 46.17926 6.27779 11406 ft 264 kts 275°
2026-05-07 18:43 46.17845 6.25165 11115 ft 261 kts 255°
2026-05-07 18:43 46.17035 6.22874 10822 ft 257 kts 232°
2026-05-07 18:43 46.15911 6.20876 10540 ft 256 kts 229°
2026-05-07 18:43 46.14748 6.18953 10239 ft 255 kts 228°
2026-05-07 18:44 46.13578 6.17028 9951 ft 254 kts 228°
2026-05-07 18:44 46.12423 6.15113 9635 ft 252 kts 228°
2026-05-07 18:44 46.11284 6.13218 9318 ft 247 kts 228°
2026-05-07 18:44 46.10167 6.11355 8999 ft 244 kts 227°
2026-05-07 18:45 46.09020 6.09577 8606 ft 240 kts 225°
2026-05-07 18:45 46.07852 6.07862 8221 ft 239 kts 224°
2026-05-07 18:45 46.06676 6.06161 7889 ft 238 kts 224°
2026-05-07 18:45 46.05523 6.04497 7521 ft 239 kts 224°
2026-05-07 18:46 46.04348 6.02803 7155 ft 239 kts 224°
2026-05-07 18:46 46.03172 6.01109 6992 ft 239 kts 224°
2026-05-07 18:46 46.01993 5.99411 6980 ft 240 kts 224°
2026-05-07 18:46 46.00816 5.97715 6979 ft 240 kts 224°
2026-05-07 18:47 45.99635 5.96017 6974 ft 240 kts 224°
2026-05-07 18:47 45.98454 5.94320 6975 ft 240 kts 224°
2026-05-07 18:47 45.97275 5.92626 6976 ft 240 kts 224°
2026-05-07 18:47 45.96231 5.90769 6868 ft 240 kts 243°
2026-05-07 18:48 45.95917 5.88434 6629 ft 242 kts 274°
2026-05-07 18:48 45.96483 5.86175 6393 ft 243 kts 303°
2026-05-07 18:48 45.97580 5.84324 6134 ft 244 kts 320°
2026-05-07 18:48 45.99084 5.83330 5992 ft 244 kts 351°
2026-05-07 18:49 46.00796 5.83432 5983 ft 244 kts
2026-05-07 18:49 46.02441 5.83900 5982 ft 244 kts 12°
2026-05-07 18:49 46.04101 5.84416 5984 ft 244 kts 13°
2026-05-07 18:49 46.05724 5.85103 5982 ft 244 kts 25°
2026-05-07 18:50 46.07131 5.86443 5861 ft 242 kts 42°
2026-05-07 18:50 46.08314 5.88158 5565 ft 238 kts 48°
2026-05-07 18:50 46.09424 5.89854 5227 ft 228 kts 46°
2026-05-07 18:50 46.10519 5.91440 4890 ft 218 kts 45°
2026-05-07 18:51 46.11545 5.92928 4577 ft 202 kts 46°
2026-05-07 18:51 46.12497 5.94321 4307 ft 189 kts 45°
2026-05-07 18:51 46.13413 5.95661 4075 ft 185 kts 45°
2026-05-07 18:51 46.14303 5.96964 3847 ft 178 kts 45°
2026-05-07 18:52 46.15153 5.98207 3590 ft 168 kts 45°
2026-05-07 18:52 46.15955 5.99381 3368 ft 161 kts 45°
2026-05-07 18:52 46.16706 6.00482 3153 ft 146 kts 45°
2026-05-07 18:52 46.17382 6.01471 2960 ft 133 kts 45°
2026-05-07 18:53 46.18016 6.02400 2779 ft 131 kts 44°
2026-05-07 18:53 46.18655 6.03336 2589 ft 131 kts 45°
2026-05-07 18:53 46.19296 6.04277 2415 ft 131 kts 45°
2026-05-07 18:53 46.19938 6.05219 2235 ft 131 kts 45°
2026-05-07 18:54 46.20366 6.05845 2122 ft 131 kts 45°
2026-05-07 18:54 46.20683 6.06311 2037 ft 130 kts 44°
2026-05-07 18:54 46.21319 6.07247 1830 ft 129 kts 46°
2026-05-07 18:54 46.21951 6.08179 1683 ft 130 kts 44°
2026-05-07 18:55 46.22572 6.09166 2089 ft 151 kts 48°
2026-05-07 18:55 46.23263 6.10300 2969 ft 157 kts 48°
2026-05-07 18:55 46.23981 6.11478 3871 ft 162 kts 48°
2026-05-07 18:55 46.24785 6.12797 4350 ft 187 kts 49°
2026-05-07 18:56 46.25690 6.14280 4831 ft 210 kts 49°
2026-05-07 18:56 46.26733 6.15991 5115 ft 243 kts 49°
2026-05-07 18:56 46.27899 6.17906 5715 ft 261 kts 49°
2026-05-07 18:56 46.29125 6.19924 6439 ft 270 kts 49°
2026-05-07 18:57 46.30325 6.21897 6845 ft 254 kts 49°
2026-05-07 18:57 46.31482 6.23795 6991 ft 250 kts 49°
2026-05-07 18:57 46.32854 6.25307 6999 ft 249 kts 21°
2026-05-07 18:57 46.34545 6.25652 6996 ft 248 kts 350°
2026-05-07 18:58 46.36120 6.24740 7006 ft 246 kts 322°
2026-05-07 18:58 46.37405 6.23105 7008 ft 246 kts 310°
2026-05-07 18:58 46.38175 6.20950 7002 ft 242 kts 278°
2026-05-07 18:58 46.38071 6.18569 7000 ft 237 kts 248°
2026-05-07 18:59 46.37305 6.16499 7004 ft 238 kts 235°
2026-05-07 18:59 46.36351 6.14533 7006 ft 239 kts 233°
2026-05-07 18:59 46.35374 6.12587 7004 ft 239 kts 233°
2026-05-07 18:59 46.34396 6.10645 7002 ft 239 kts 232°
2026-05-07 19:00 46.33413 6.08693 7008 ft 239 kts 233°
2026-05-07 19:00 46.32437 6.06759 7027 ft 236 kts 233°
2026-05-07 19:00 46.31466 6.04838 7012 ft 237 kts 233°
2026-05-07 19:00 46.30490 6.02908 7001 ft 238 kts 233°
2026-05-07 19:01 46.29508 6.00967 7000 ft 239 kts 233°
2026-05-07 19:01 46.28528 5.99030 7003 ft 239 kts 232°
2026-05-07 19:01 46.27876 5.97739 7008 ft 239 kts 233°
2026-05-07 19:01 46.26898 5.95799 7002 ft 239 kts 232°
2026-05-07 19:02 46.25923 5.93859 7004 ft 239 kts 232°
2026-05-07 19:02 46.24946 5.91918 6998 ft 238 kts 232°
2026-05-07 19:02 46.23997 5.90027 6995 ft 223 kts 233°
2026-05-07 19:02 46.23128 5.88292 6997 ft 203 kts 233°
2026-05-07 19:03 46.22323 5.86678 6986 ft 196 kts 232°
2026-05-07 19:03 46.21526 5.85084 7001 ft 195 kts 232°
2026-05-07 19:03 46.20746 5.83520 7006 ft 195 kts 233°
2026-05-07 19:03 46.19948 5.81912 7005 ft 194 kts 232°
2026-05-07 19:04 46.19158 5.80321 7000 ft 194 kts 232°
2026-05-07 19:04 46.18382 5.78758 6998 ft 194 kts 233°
2026-05-07 19:04 46.17596 5.77173 7010 ft 195 kts 233°
2026-05-07 19:04 46.16809 5.75581 6998 ft 194 kts 232°
2026-05-07 19:05 46.16027 5.73996 6781 ft 194 kts 232°
2026-05-07 19:05 46.15243 5.72412 6533 ft 194 kts 232°
2026-05-07 19:05 46.14459 5.70823 6295 ft 195 kts 233°
2026-05-07 19:05 46.13671 5.69235 6066 ft 195 kts 232°
2026-05-07 19:06 46.12883 5.67647 6016 ft 195 kts 231°
2026-05-07 19:06 46.10544 5.66480 6004 ft 189 kts 159°
2026-05-07 19:06 46.09395 5.67419 6009 ft 191 kts 145°
2026-05-07 19:07 46.08329 5.68570 6004 ft 192 kts 143°
2026-05-07 19:07 46.07270 5.69753 5994 ft 193 kts 142°
2026-05-07 19:07 46.06244 5.70901 6000 ft 193 kts 143°
2026-05-07 19:07 46.05184 5.72089 5999 ft 193 kts 142°
2026-05-07 19:08 46.04186 5.73376 5986 ft 193 kts 125°
2026-05-07 19:08 46.03816 5.75203 6000 ft 195 kts 88°
2026-05-07 19:08 46.04077 5.77099 6000 ft 197 kts 75°
2026-05-07 19:08 46.04497 5.78983 6003 ft 198 kts 73°
2026-05-07 19:09 46.04937 5.80864 6006 ft 198 kts 72°
2026-05-07 19:09 46.05377 5.82740 6001 ft 198 kts 73°
2026-05-07 19:09 46.05959 5.84542 5999 ft 199 kts 58°
2026-05-07 19:09 46.06839 5.86083 5939 ft 200 kts 47°
2026-05-07 19:10 46.07824 5.87498 5702 ft 199 kts 46°
2026-05-07 19:10 46.08797 5.88906 5407 ft 197 kts 46°
2026-05-07 19:10 46.09753 5.90310 5095 ft 196 kts 46°
2026-05-07 19:10 46.10703 5.91700 4823 ft 193 kts 46°
2026-05-07 19:11 46.11638 5.93065 4551 ft 188 kts 46°
2026-05-07 19:11 46.12534 5.94376 4333 ft 180 kts 46°
2026-05-07 19:11 46.13415 5.95664 4067 ft 181 kts 46°
2026-05-07 19:11 46.14299 5.96958 3824 ft 181 kts 46°
2026-05-07 19:12 46.15180 5.98248 3579 ft 180 kts 45°
2026-05-07 19:12 46.16060 5.99535 3340 ft 180 kts 45°
2026-05-07 19:12 46.16923 6.00799 3093 ft 178 kts 45°
2026-05-07 19:12 46.17793 6.02074 2844 ft 178 kts 45°
2026-05-07 19:13 46.18659 6.03343 2585 ft 178 kts 45°
2026-05-07 19:13 46.19510 6.04590 2344 ft 167 kts 45°
2026-05-07 19:13 46.20282 6.05722 2127 ft 151 kts 45°
2026-05-07 19:13 46.20857 6.06566 1970 ft 138 kts 45°
2026-05-07 19:14 46.21508 6.07520 1794 ft 130 kts 44°
2026-05-07 19:14 46.22143 6.08454 1620 ft 131 kts 45°
2026-05-07 19:14 46.22784 6.09403 1461 ft 131 kts 44°
2026-05-07 19:14 46.23406 6.10310 1400 ft 112 kts 46°
2026-05-07 19:15 46.23827 6.10928 1385 ft 60 kts 45°
2026-05-07 19:15 46.24054 6.11260 1378 ft 44 kts 45°
2026-05-07 19:15 46.24257 6.11577 1376 ft 41 kts 55°
2026-05-07 19:15 46.24335 6.11849 1368 ft 27 kts 76°
2026-05-07 19:16 46.24306 6.11947 1366 ft 9 kts 179°
2026-05-07 19:16 46.24255 6.11885 1365 ft 10 kts 227°
2026-05-07 19:16 46.24210 6.11817 1366 ft 8 kts 226°
2026-05-07 19:16 46.24177 6.11767 1367 ft 6 kts 226°
2026-05-07 19:17 46.24146 6.11723 1369 ft 9 kts 224°
2026-05-07 19:17 46.24105 6.11664 1370 ft 7 kts 225°
2026-05-07 19:17 46.24060 6.11600 1372 ft 14 kts 225°
2026-05-07 19:17 46.23980 6.11478 1376 ft 17 kts 227°
2026-05-07 19:18 46.23904 6.11369 1379 ft 15 kts 225°
2026-05-07 19:18 46.23827 6.11257 1381 ft 17 kts 225°
2026-05-07 19:18 46.23742 6.11131 1386 ft 17 kts 225°
2026-05-07 19:18 46.23669 6.11025 1400 ft 14 kts 225°
2026-05-07 19:19 46.23593 6.10918 1396 ft 17 kts 224°
2026-05-07 19:19 46.23505 6.10787 1394 ft 20 kts 224°
2026-05-07 19:19 46.23414 6.10655 1399 ft 16 kts 220°
2026-05-07 19:19 46.23334 6.10546 1398 ft 15 kts 225°
2026-05-07 19:20 46.23311 6.10513 1402 ft 0 kts 222°
2026-05-07 19:20 46.23307 6.10511 1403 ft 4 kts 205°
2026-05-07 19:20 46.23285 6.10522 1399 ft 4 kts 139°
2026-05-07 19:21 46.23254 6.10561 1404 ft 8 kts 138°
2026-05-07 19:21 46.23214 6.10618 1406 ft 8 kts 135°
2026-05-07 19:21 46.23171 6.10656 1400 ft 7 kts 169°
2026-05-07 19:21 46.23141 6.10685 1396 ft 1 kts 135°
2026-05-07 19:22 46.23134 6.10694 1399 ft 1 kts 134°
2026-05-07 19:22 46.23130 6.10701 1396 ft 0 kts 134°